Terminal Aerodrome Forecast
Issued by NWS

Home | Current Version | Previous Version | Text Only | Print | Product List | Glossary On
Versions: 1 2 3 4 5 6 7 8 9 10 11 12 13 14 15 16 17 18 19 20 21 22 23 24 25 26 27 28 29 30 31 32 33 34 35 36 37 38 39 40 41 42 43 44 45
000
FTAK31 PANC 270536
TAFADL
TAF
PADL 270536Z 2706/2806 33008KT P6SM SKC
      TEMPO 2706/2708 34010G18KT FEW050
     FM280100 23005KT P6SM FEW050 SCT100
      AMD LTD TO CLD VIS AND WIND 2707/2716=

USA.gov is the U.S. government's official web portal to all federal, state and local government web resources and services.